カタログに戻る

TIANMU-1 16

運用中気象SSO
NORAD 58701·PAYLOAD·🇨🇳 China

打ち上げ Jan 5, 2024 から Jiuquan Satellite Launch Center

Loading…

次のパス (今後24時間)

TLE

最新Source: Space-Track

元期: Sep 14, 2026, 23:38 UTC

1 58701U 24004B   26257.98537788  .00004743  00000-0  17871-3 0  9993
2 58701  97.4622  83.3992 0006894  45.7798 314.4006 15.27553859149488

AllMySatでTIANMU-1 16をリアルタイム追跡

Download on the App Store